Location: Sihaung
(22.8641°N, 94.0549°E)
Time: 03:02:29
(UTC+00:00)

CZ-4C R/B - Pass Details

Date: 03 March 2021
Orbit: 614 x 1388 km, 63.4° (Epoch: 12 April)

Event Time Altitude Azimuth Distance (km) Brightness Sun altitude
Exits shadow 23:38:52 - 252° (WSW) 2,395 4.0 -6.3°
Reaches altitude 10° 23:40:07 10° 263° (W) 2,049 3.6 -6.0°
Maximum altitude 23:43:15 18° 307° (NW) 1,666 3.3 -5.3°
Drops below altitude 10° 23:46:40 10° 350° (N) 2,258 4.3 -4.5°
Sets 23:50:01 0° 8° (N) 3,327 5.3 -3.8°
